RJA147 OJAI-EDDH

Flight info

Callsign RJA147
Flight time 4h 22m
Altitude 30000
Route MUVIN L53 SUVAS N128 OTHON UN128 RDS UL609 MES DCT EVIVI L863 OKANA DCT DONIV DCT PARAK DCT BERVA DCT MAVOR DCT HDO DCT BOLBO DCT ESIKA M748 RARUP RARUP6A
Aircraft A21N/M-SDE2E3FGHIRWXY/LB1

Departure

Time 2026-04-21 07:09
Airport Queen Alia International Airport (OJAI)

Arrival

Time 2026-04-21 11:32
Airport Hamburg Helmut Schmidt Airport (EDDH)
Time Latitude Longitude Altitude Speed Heading
2026-04-21 06:56 31.72409 35.98667 2414 ft 0 kts 171°
2026-04-21 07:01 31.72429 35.98662 2413 ft 4 kts 166°
2026-04-21 07:01 31.72476 35.98636 2412 ft 4 kts 129°
2026-04-21 07:02 31.72484 35.98614 2414 ft 2 kts 81°
2026-04-21 07:02 31.72483 35.98608 2414 ft 0 kts 80°
2026-04-21 07:04 31.72484 35.98614 2414 ft 9 kts 80°
2026-04-21 07:04 31.72499 35.98719 2414 ft 14 kts 81°
2026-04-21 07:05 31.72518 35.98846 2414 ft 17 kts 80°
2026-04-21 07:05 31.72647 35.98899 2414 ft 17 kts 22°
2026-04-21 07:05 31.72696 35.98988 2414 ft 15 kts 73°
2026-04-21 07:05 31.72719 35.99144 2414 ft 26 kts 70°
2026-04-21 07:06 31.72750 35.99347 2414 ft 25 kts 93°
2026-04-21 07:06 31.72766 35.99483 2413 ft 25 kts 81°
2026-04-21 07:06 31.72796 35.99688 2414 ft 26 kts 85°
2026-04-21 07:06 31.72826 35.99896 2414 ft 26 kts 83°
2026-04-21 07:07 31.72858 36.00108 2414 ft 27 kts 84°
2026-04-21 07:07 31.72888 36.00324 2414 ft 27 kts 83°
2026-04-21 07:07 31.72920 36.00544 2414 ft 28 kts 83°
2026-04-21 07:07 31.72955 36.00744 2413 ft 24 kts 41°
2026-04-21 07:08 31.73112 36.00756 2413 ft 24 kts 356°
2026-04-21 07:08 31.73205 36.00662 2413 ft 21 kts 264°
2026-04-21 07:08 31.73187 36.00482 2413 ft 32 kts 261°
2026-04-21 07:08 31.73113 35.99957 2415 ft 97 kts 261°
2026-04-21 07:09 31.72969 35.98973 2415 ft 141 kts 260°
2026-04-21 07:09 31.72789 35.97697 2450 ft 172 kts 259°
2026-04-21 07:09 31.72530 35.96371 2942 ft 170 kts 259°
2026-04-21 07:09 31.72301 35.94950 3306 ft 182 kts 261°
2026-04-21 07:10 31.72080 35.93452 3701 ft 191 kts 261°
2026-04-21 07:10 31.71841 35.91892 4019 ft 202 kts 261°
2026-04-21 07:10 31.71584 35.90214 4325 ft 216 kts 261°
2026-04-21 07:10 31.71345 35.88405 4667 ft 233 kts 269°
2026-04-21 07:11 31.71618 35.86464 4953 ft 252 kts 289°
2026-04-21 07:11 31.72240 35.84483 5435 ft 264 kts 290°
2026-04-21 07:11 31.72892 35.82457 6153 ft 266 kts 290°
2026-04-21 07:11 31.73540 35.80410 6856 ft 269 kts 290°
2026-04-21 07:12 31.74183 35.78343 7522 ft 271 kts 289°
2026-04-21 07:12 31.74827 35.76246 8153 ft 275 kts 289°
2026-04-21 07:12 31.75472 35.74126 8832 ft 277 kts 289°
2026-04-21 07:12 31.76123 35.71983 9484 ft 280 kts 289°
2026-04-21 07:13 31.76780 35.69818 10143 ft 283 kts 289°
2026-04-21 07:13 31.77454 35.67584 10453 ft 298 kts 289°
2026-04-21 07:13 31.78164 35.65224 10685 ft 315 kts 289°
2026-04-21 07:13 31.78917 35.62740 10903 ft 331 kts 289°
2026-04-21 07:14 31.79709 35.60123 11112 ft 348 kts 289°
2026-04-21 07:14 31.80532 35.57385 11315 ft 363 kts 289°
2026-04-21 07:14 31.81380 35.54549 11735 ft 370 kts 289°
2026-04-21 07:14 31.82238 35.51686 12334 ft 373 kts 289°
2026-04-21 07:15 31.83102 35.48809 12955 ft 374 kts 289°
2026-04-21 07:15 31.83972 35.45920 13565 ft 375 kts 289°
2026-04-21 07:15 31.84846 35.43020 14117 ft 377 kts 289°
2026-04-21 07:15 31.85724 35.40107 14629 ft 379 kts 289°
2026-04-21 07:16 31.86602 35.37180 15146 ft 380 kts 289°
2026-04-21 07:16 31.87485 35.34244 15687 ft 381 kts 289°
2026-04-21 07:16 31.88372 35.31300 16224 ft 382 kts 289°
2026-04-21 07:16 31.89249 35.28337 16770 ft 384 kts 288°
2026-04-21 07:17 31.90127 35.25364 17305 ft 386 kts 288°
2026-04-21 07:17 31.91006 35.22375 17847 ft 387 kts 288°
2026-04-21 07:17 31.91888 35.19372 18366 ft 389 kts 288°
2026-04-21 07:17 31.92773 35.16359 18816 ft 391 kts 288°
2026-04-21 07:18 31.93667 35.13329 19260 ft 392 kts 288°
2026-04-21 07:18 31.94572 35.10297 19714 ft 394 kts 288°
2026-04-21 07:18 31.95466 35.07290 20164 ft 395 kts 288°
2026-04-21 07:18 31.96365 35.04230 20608 ft 396 kts 288°
2026-04-21 07:19 31.97263 35.01161 21041 ft 397 kts 288°
2026-04-21 07:19 31.98171 34.98082 21474 ft 399 kts 288°
2026-04-21 07:19 31.99083 34.94987 21896 ft 400 kts 288°
2026-04-21 07:19 31.99988 34.91879 22315 ft 402 kts 288°
2026-04-21 07:20 32.00876 34.88752 22734 ft 403 kts 285°
2026-04-21 07:20 32.01401 34.85514 23129 ft 404 kts 276°
2026-04-21 07:20 32.01611 34.82209 23520 ft 405 kts 274°
2026-04-21 07:20 32.01776 34.78891 23866 ft 406 kts 274°
2026-04-21 07:21 32.01948 34.75567 24217 ft 407 kts 274°
2026-04-21 07:21 32.02129 34.72235 24580 ft 408 kts 274°
2026-04-21 07:21 32.02311 34.68896 24920 ft 409 kts 274°
2026-04-21 07:21 32.02500 34.65547 25265 ft 410 kts 274°
2026-04-21 07:22 32.02689 34.62200 25607 ft 410 kts 274°
2026-04-21 07:22 32.02883 34.58846 25929 ft 410 kts 274°
2026-04-21 07:22 32.03071 34.55499 26367 ft 408 kts 274°
2026-04-21 07:22 32.03250 34.52178 26838 ft 404 kts 274°
2026-04-21 07:23 32.03421 34.48882 27306 ft 401 kts 274°
2026-04-21 07:23 32.03601 34.45613 27760 ft 398 kts 274°
2026-04-21 07:23 32.03783 34.42366 28186 ft 396 kts 274°
2026-04-21 07:23 32.03959 34.39139 28624 ft 393 kts 274°
2026-04-21 07:24 32.04137 34.35935 29040 ft 391 kts 274°
2026-04-21 07:24 32.04312 34.32749 29446 ft 388 kts 274°
2026-04-21 07:24 32.04489 34.29580 29847 ft 386 kts 274°
2026-04-21 07:24 32.04688 34.26428 30057 ft 386 kts 277°
2026-04-21 07:25 32.06194 34.20363 30066 ft 390 kts 294°
2026-04-21 07:25 32.08973 34.14841 30056 ft 392 kts 298°
2026-04-21 07:26 32.11810 34.09349 30054 ft 392 kts 297°
2026-04-21 07:26 32.14609 34.03835 30053 ft 392 kts 297°
2026-04-21 07:27 32.17451 33.98392 30054 ft 394 kts 301°
2026-04-21 07:27 32.20625 33.93116 30055 ft 394 kts 302°
2026-04-21 07:28 32.23813 33.87856 30055 ft 394 kts 302°
2026-04-21 07:28 32.26987 33.82578 30076 ft 395 kts 302°
2026-04-21 07:29 32.30177 33.77267 30063 ft 397 kts 302°
2026-04-21 07:29 32.33362 33.71937 30054 ft 397 kts 302°
2026-04-21 07:30 32.36562 33.66615 30055 ft 397 kts 302°
2026-04-21 07:30 32.39766 33.61283 30052 ft 398 kts 302°
2026-04-21 07:31 32.42960 33.55942 30054 ft 397 kts 302°
2026-04-21 07:31 32.46128 33.50630 30051 ft 397 kts 302°
2026-04-21 07:32 32.49310 33.45277 30047 ft 398 kts 302°
2026-04-21 07:32 32.52504 33.39924 30049 ft 398 kts 302°
2026-04-21 07:33 32.55671 33.34551 30053 ft 398 kts 302°
2026-04-21 07:33 32.58868 33.29198 30052 ft 398 kts 302°
2026-04-21 07:34 32.62045 33.23826 30055 ft 397 kts 301°
2026-04-21 07:34 32.65202 33.18434 30050 ft 398 kts 302°
2026-04-21 07:35 32.66786 33.15740 30207 ft 399 kts 302°
2026-04-21 07:35 32.68374 33.13041 30454 ft 398 kts 302°
2026-04-21 07:35 32.69961 33.10350 30715 ft 397 kts 302°
2026-04-21 07:35 32.71544 33.07669 30975 ft 396 kts 302°
2026-04-21 07:36 32.73124 33.04984 31217 ft 396 kts 302°
2026-04-21 07:36 32.74706 33.02297 31380 ft 397 kts 302°
2026-04-21 07:36 32.76308 32.99618 31582 ft 397 kts 302°
2026-04-21 07:36 32.77900 32.96940 31812 ft 397 kts 302°
2026-04-21 07:37 32.79479 32.94253 32025 ft 396 kts 302°
2026-04-21 07:37 32.81050 32.91571 32077 ft 394 kts 302°
2026-04-21 07:37 32.84196 32.86236 32062 ft 394 kts 302°
2026-04-21 07:38 32.87318 32.80928 32046 ft 394 kts 302°
2026-04-21 07:38 32.90443 32.75560 32056 ft 394 kts 302°
2026-04-21 07:39 32.93581 32.70211 32059 ft 394 kts 302°
2026-04-21 07:39 32.96712 32.64851 32046 ft 394 kts 302°
2026-04-21 07:40 32.99810 32.59465 32045 ft 395 kts 302°
2026-04-21 07:40 33.02932 32.54061 32045 ft 396 kts 302°
2026-04-21 07:41 33.06058 32.48663 32044 ft 396 kts 302°
2026-04-21 07:41 33.09163 32.43303 32044 ft 396 kts 302°
2026-04-21 07:42 33.12293 32.37894 32049 ft 396 kts 302°
2026-04-21 07:42 33.15420 32.32487 32044 ft 396 kts 302°
2026-04-21 07:43 33.18576 32.27084 32059 ft 397 kts 302°
2026-04-21 07:43 33.21726 32.21643 32050 ft 398 kts 302°
2026-04-21 07:44 33.24872 32.16195 32046 ft 398 kts 302°
2026-04-21 07:44 33.28019 32.10744 32044 ft 398 kts 302°
2026-04-21 07:45 33.31159 32.05287 32046 ft 399 kts 303°
2026-04-21 07:45 33.34289 31.99809 32044 ft 399 kts 302°
2026-04-21 07:46 33.37430 31.94330 32041 ft 399 kts 303°
2026-04-21 07:46 33.40548 31.88882 32040 ft 399 kts 302°
2026-04-21 07:47 33.43679 31.83393 32043 ft 399 kts 302°
2026-04-21 07:47 33.46802 31.77896 32043 ft 399 kts 302°
2026-04-21 07:48 33.49930 31.72402 32042 ft 399 kts 302°
2026-04-21 07:48 33.53052 31.66900 32042 ft 399 kts 302°
2026-04-21 07:49 33.56182 31.61399 32040 ft 399 kts 302°
2026-04-21 07:49 33.59306 31.55866 32041 ft 405 kts 302°
2026-04-21 07:50 33.62506 31.50218 32039 ft 413 kts 302°
2026-04-21 07:50 33.65746 31.44465 32049 ft 419 kts 303°
2026-04-21 07:51 33.69023 31.38674 32049 ft 419 kts 303°
2026-04-21 07:51 33.72285 31.32870 32039 ft 419 kts 303°
2026-04-21 07:52 33.75529 31.27101 32038 ft 419 kts 303°
2026-04-21 07:52 33.78795 31.21294 32033 ft 419 kts 303°
2026-04-21 07:53 33.82042 31.15480 32036 ft 419 kts 303°
2026-04-21 07:53 33.85294 31.09667 32035 ft 419 kts 303°
2026-04-21 07:54 33.88539 31.03837 32041 ft 419 kts 303°
2026-04-21 07:54 33.91241 30.99006 32039 ft 419 kts 303°
2026-04-21 07:55 33.94490 30.93182 32037 ft 419 kts 303°
2026-04-21 07:55 33.97738 30.87349 32036 ft 419 kts 303°
2026-04-21 07:56 34.00977 30.81506 32040 ft 419 kts 303°
2026-04-21 07:56 34.04212 30.75654 32040 ft 419 kts 302°
2026-04-21 07:57 34.07442 30.69803 32038 ft 419 kts 303°
2026-04-21 07:57 34.10689 30.63926 32039 ft 421 kts 303°
2026-04-21 07:58 34.13918 30.58083 32033 ft 421 kts 303°
2026-04-21 07:58 34.17159 30.52192 32025 ft 421 kts 303°
2026-04-21 07:59 34.20405 30.46304 32028 ft 421 kts 303°
2026-04-21 07:59 34.23643 30.40403 32033 ft 421 kts 303°
2026-04-21 08:00 34.26880 30.34497 32031 ft 421 kts 303°
2026-04-21 08:00 34.30093 30.28574 32040 ft 421 kts 302°
2026-04-21 08:01 34.33312 30.22650 32033 ft 422 kts 303°
2026-04-21 08:02 34.38180 30.13780 32032 ft 421 kts 303°
2026-04-21 08:02 34.41402 30.07844 32038 ft 422 kts 303°
2026-04-21 08:03 34.44634 30.01910 32030 ft 422 kts 303°
2026-04-21 08:03 34.48641 29.96736 32031 ft 426 kts 321°
2026-04-21 08:04 34.53513 29.92622 32034 ft 427 kts 322°
2026-04-21 08:04 34.58403 29.88529 32029 ft 427 kts 322°
2026-04-21 08:05 34.63276 29.84413 32027 ft 427 kts 322°
2026-04-21 08:05 34.68159 29.80293 32029 ft 427 kts 322°
2026-04-21 08:06 34.73049 29.76195 32028 ft 427 kts 322°
2026-04-21 08:06 34.77936 29.72078 32032 ft 427 kts 322°
2026-04-21 08:07 34.82832 29.67956 32034 ft 428 kts 322°
2026-04-21 08:07 34.87723 29.63821 32029 ft 428 kts 322°
2026-04-21 08:08 34.92566 29.59684 32029 ft 428 kts 322°
2026-04-21 08:08 34.97452 29.55535 32030 ft 428 kts 322°
2026-04-21 08:09 35.02343 29.51377 32027 ft 429 kts 322°
2026-04-21 08:09 35.07251 29.47216 32020 ft 429 kts 322°
2026-04-21 08:10 35.12144 29.43046 32027 ft 429 kts 322°
2026-04-21 08:10 35.17033 29.38856 32023 ft 429 kts 322°
2026-04-21 08:11 35.21915 29.34665 32024 ft 429 kts 322°
2026-04-21 08:11 35.26804 29.30475 32024 ft 429 kts 322°
2026-04-21 08:12 35.31688 29.26269 32023 ft 429 kts 322°
2026-04-21 08:12 35.36561 29.22051 32024 ft 429 kts 322°
2026-04-21 08:13 35.41449 29.17853 32027 ft 429 kts 322°
2026-04-21 08:13 35.46336 29.13642 32025 ft 429 kts 322°
2026-04-21 08:14 35.51217 29.09418 32024 ft 429 kts 322°
2026-04-21 08:14 35.56070 29.05222 32024 ft 429 kts 322°
2026-04-21 08:15 35.60980 29.00968 32022 ft 429 kts 322°
2026-04-21 08:15 35.65835 28.96776 32045 ft 429 kts 322°
2026-04-21 08:16 35.70700 28.92525 32026 ft 429 kts 322°
2026-04-21 08:16 35.75565 28.88274 32024 ft 429 kts 322°
2026-04-21 08:17 35.80434 28.84033 32024 ft 429 kts 322°
2026-04-21 08:17 35.85294 28.79782 32024 ft 429 kts 322°
2026-04-21 08:18 35.90160 28.75529 32023 ft 429 kts 322°
2026-04-21 08:18 35.95024 28.71274 32035 ft 428 kts 322°
2026-04-21 08:19 35.99893 28.67009 32024 ft 429 kts 322°
2026-04-21 08:19 36.04746 28.62744 32021 ft 428 kts 322°
2026-04-21 08:20 36.09611 28.58488 32017 ft 428 kts 322°
2026-04-21 08:20 36.14467 28.54227 32012 ft 428 kts 322°
2026-04-21 08:21 36.19324 28.49960 32007 ft 428 kts 322°
2026-04-21 08:21 36.24169 28.45669 32015 ft 428 kts 322°
2026-04-21 08:22 36.29021 28.41392 32002 ft 428 kts 322°
2026-04-21 08:22 36.33867 28.37099 32000 ft 428 kts 322°
2026-04-21 08:23 36.38707 28.32803 32001 ft 427 kts 322°
2026-04-21 08:23 36.43539 28.28504 31996 ft 427 kts 322°
2026-04-21 08:24 36.48374 28.24189 31996 ft 427 kts 322°
2026-04-21 08:24 36.53166 28.19901 32009 ft 426 kts 322°
2026-04-21 08:25 36.57983 28.15607 32005 ft 426 kts 322°
2026-04-21 08:25 36.62794 28.11288 32010 ft 426 kts 322°
2026-04-21 08:26 36.67609 28.06973 32014 ft 426 kts 322°
2026-04-21 08:26 36.72428 28.02659 32008 ft 426 kts 322°
2026-04-21 08:27 36.77237 27.98328 32010 ft 427 kts 322°
2026-04-21 08:27 36.82052 27.93997 32013 ft 426 kts 322°
2026-04-21 08:28 36.86856 27.89663 32016 ft 426 kts 322°
2026-04-21 08:28 36.91661 27.85316 32015 ft 426 kts 322°
2026-04-21 08:29 36.96458 27.80975 32020 ft 426 kts 322°
2026-04-21 08:29 37.01265 27.76622 32022 ft 426 kts 322°
2026-04-21 08:30 37.06064 27.72259 32024 ft 426 kts 322°
2026-04-21 08:30 37.10821 27.67919 32032 ft 425 kts 322°
2026-04-21 08:31 37.15590 27.63540 32027 ft 425 kts 322°
2026-04-21 08:31 37.20362 27.59152 32021 ft 426 kts 322°
2026-04-21 08:32 37.25150 27.54776 32024 ft 425 kts 322°
2026-04-21 08:32 37.29933 27.50391 32010 ft 426 kts 322°
2026-04-21 08:33 37.34729 27.46011 32014 ft 427 kts 322°
2026-04-21 08:33 37.39525 27.41608 32020 ft 427 kts 322°
2026-04-21 08:34 37.44323 27.37192 32018 ft 427 kts 322°
2026-04-21 08:34 37.49123 27.32769 32019 ft 427 kts 322°
2026-04-21 08:35 37.53921 27.28344 32016 ft 427 kts 322°
2026-04-21 08:35 37.58713 27.23916 32019 ft 427 kts 322°
2026-04-21 08:36 37.63508 27.19484 32017 ft 427 kts 322°
2026-04-21 08:36 37.68304 27.15051 32032 ft 428 kts 321°
2026-04-21 08:37 37.73109 27.10608 32029 ft 428 kts 321°
2026-04-21 08:37 37.77882 27.06189 32018 ft 428 kts 322°
2026-04-21 08:38 37.82682 27.01730 32030 ft 428 kts 321°
2026-04-21 08:38 37.87476 26.97255 32022 ft 428 kts 321°
2026-04-21 08:39 37.92269 26.92778 32025 ft 428 kts 321°
2026-04-21 08:39 37.97058 26.88285 32015 ft 428 kts 321°
2026-04-21 08:40 38.01852 26.83788 32011 ft 429 kts 321°
2026-04-21 08:40 38.06651 26.79277 32005 ft 429 kts 321°
2026-04-21 08:41 38.11459 26.74767 31997 ft 429 kts 321°
2026-04-21 08:41 38.15446 26.71011 31988 ft 429 kts 321°
2026-04-21 08:42 38.20242 26.66483 31996 ft 429 kts 321°
2026-04-21 08:42 38.25010 26.61927 31991 ft 429 kts 321°
2026-04-21 08:43 38.29799 26.57386 31991 ft 429 kts 321°
2026-04-21 08:43 38.34594 26.52833 31992 ft 431 kts 321°
2026-04-21 08:44 38.39393 26.48251 31991 ft 431 kts 321°
2026-04-21 08:44 38.44187 26.43660 31988 ft 431 kts 321°
2026-04-21 08:45 38.48984 26.39081 31995 ft 431 kts 321°
2026-04-21 08:45 38.53795 26.34493 31989 ft 431 kts 321°
2026-04-21 08:46 38.58607 26.29912 31984 ft 431 kts 321°
2026-04-21 08:46 38.63417 26.25331 31982 ft 432 kts 320°
2026-04-21 08:47 38.68224 26.20710 31990 ft 432 kts 320°
2026-04-21 08:47 38.73047 26.16104 31997 ft 433 kts 320°
2026-04-21 08:48 38.77870 26.11468 31989 ft 433 kts 320°
2026-04-21 08:48 38.82691 26.06820 31988 ft 433 kts 320°
2026-04-21 08:49 38.87494 26.02146 31988 ft 433 kts 320°
2026-04-21 08:49 38.92314 25.97499 31985 ft 433 kts 320°
2026-04-21 08:50 38.97098 25.92864 31982 ft 433 kts 320°
2026-04-21 08:50 39.01903 25.88171 31989 ft 435 kts 320°
2026-04-21 08:51 39.06730 25.83476 31983 ft 435 kts 320°
2026-04-21 08:51 39.11549 25.78759 31984 ft 435 kts 320°
2026-04-21 08:52 39.16374 25.74050 31981 ft 435 kts 320°
2026-04-21 08:52 39.21207 25.69339 31978 ft 435 kts 320°
2026-04-21 08:53 39.26025 25.64618 31975 ft 435 kts 320°
2026-04-21 08:53 39.30821 25.59897 31979 ft 433 kts 320°
2026-04-21 08:54 39.35610 25.55175 31975 ft 433 kts 320°
2026-04-21 08:54 39.40381 25.50448 31975 ft 433 kts 319°
2026-04-21 08:55 39.45154 25.45696 31973 ft 433 kts 320°
2026-04-21 08:55 39.49947 25.40965 31970 ft 433 kts 320°
2026-04-21 08:56 39.54693 25.36251 31975 ft 433 kts 320°
2026-04-21 08:56 39.59448 25.31515 32352 ft 428 kts 320°
2026-04-21 08:56 39.61796 25.29177 32707 ft 422 kts 320°
2026-04-21 08:57 39.64121 25.26874 33000 ft 420 kts 320°
2026-04-21 08:57 39.66444 25.24560 33126 ft 421 kts 320°
2026-04-21 08:57 39.68767 25.22255 33316 ft 420 kts 320°
2026-04-21 08:57 39.71083 25.19952 33465 ft 420 kts 319°
2026-04-21 08:58 39.73399 25.17639 33642 ft 419 kts 319°
2026-04-21 08:58 39.75707 25.15330 33800 ft 419 kts 319°
2026-04-21 08:58 39.78017 25.13018 33945 ft 419 kts 319°
2026-04-21 08:58 39.80324 25.10714 34097 ft 419 kts 319°
2026-04-21 08:59 39.82634 25.08400 34216 ft 418 kts 319°
2026-04-21 08:59 39.84937 25.06092 34330 ft 418 kts 319°
2026-04-21 08:59 39.87235 25.03777 34449 ft 418 kts 319°
2026-04-21 08:59 39.89540 25.01477 34562 ft 418 kts 319°
2026-04-21 09:00 39.91851 24.99191 34684 ft 417 kts 319°
2026-04-21 09:00 39.94150 24.96900 34803 ft 416 kts 319°
2026-04-21 09:00 39.96432 24.94586 34903 ft 415 kts 318°
2026-04-21 09:01 40.00984 24.89951 35088 ft 415 kts 319°
2026-04-21 09:01 40.05549 24.85337 35257 ft 415 kts 319°
2026-04-21 09:02 40.10109 24.80724 35417 ft 415 kts 319°
2026-04-21 09:02 40.14678 24.76130 35564 ft 414 kts 319°
2026-04-21 09:03 40.19225 24.71519 35689 ft 414 kts 318°
2026-04-21 09:03 40.21496 24.69209 35747 ft 413 kts 318°
2026-04-21 09:03 40.26035 24.64596 35852 ft 413 kts 318°
2026-04-21 09:04 40.30578 24.59980 35946 ft 413 kts 318°
2026-04-21 09:04 40.35120 24.55345 35969 ft 415 kts 318°
2026-04-21 09:05 40.39682 24.50680 35959 ft 416 kts 318°
2026-04-21 09:05 40.44247 24.45995 35959 ft 417 kts 318°
2026-04-21 09:06 40.48819 24.41303 35958 ft 417 kts 318°
2026-04-21 09:06 40.53356 24.36630 35950 ft 417 kts 318°
2026-04-21 09:07 40.57934 24.31916 35955 ft 418 kts 318°
2026-04-21 09:07 40.62508 24.27190 35963 ft 418 kts 318°
2026-04-21 09:08 40.67084 24.22459 35953 ft 418 kts 318°
2026-04-21 09:08 40.71657 24.17721 35953 ft 418 kts 317°
2026-04-21 09:09 40.76230 24.12975 35944 ft 418 kts 318°
2026-04-21 09:09 40.80797 24.08225 35946 ft 418 kts 317°
2026-04-21 09:10 40.85365 24.03464 35969 ft 418 kts 317°
2026-04-21 09:10 40.89929 23.98697 35945 ft 418 kts 317°
2026-04-21 09:11 40.94490 23.93930 35945 ft 418 kts 317°
2026-04-21 09:11 40.99047 23.89151 35933 ft 418 kts 317°
2026-04-21 09:12 41.03603 23.84371 35927 ft 417 kts 317°
2026-04-21 09:12 41.08128 23.79614 35925 ft 417 kts 317°
2026-04-21 09:13 41.12674 23.74824 35935 ft 418 kts 317°
2026-04-21 09:13 41.17229 23.70018 35927 ft 419 kts 317°
2026-04-21 09:14 41.21787 23.65201 35926 ft 419 kts 317°
2026-04-21 09:14 41.26341 23.60368 35932 ft 419 kts 317°
2026-04-21 09:15 41.30901 23.55530 35926 ft 419 kts 317°
2026-04-21 09:15 41.35459 23.50687 35928 ft 419 kts 317°
2026-04-21 09:16 41.40058 23.45917 35935 ft 421 kts 322°
2026-04-21 09:16 41.45278 23.42252 35929 ft 425 kts 329°
2026-04-21 09:17 41.50578 23.38841 35933 ft 425 kts 329°
2026-04-21 09:17 41.55898 23.35379 35939 ft 426 kts 329°
2026-04-21 09:18 41.61209 23.31902 35948 ft 425 kts 329°
2026-04-21 09:18 41.66527 23.28418 35950 ft 425 kts 329°
2026-04-21 09:19 41.71840 23.24929 35949 ft 425 kts 329°
2026-04-21 09:19 41.77150 23.21434 35963 ft 426 kts 329°
2026-04-21 09:20 41.82475 23.17930 35987 ft 426 kts 329°
2026-04-21 09:20 41.87792 23.14416 35969 ft 426 kts 329°
2026-04-21 09:21 41.93105 23.10898 35969 ft 425 kts 329°
2026-04-21 09:21 41.98402 23.07393 35963 ft 424 kts 329°
2026-04-21 09:22 42.03683 23.03888 35968 ft 423 kts 329°
2026-04-21 09:22 42.08951 23.00382 35987 ft 422 kts 328°
2026-04-21 09:23 42.14207 22.96852 35991 ft 422 kts 328°
2026-04-21 09:23 42.19470 22.93335 35993 ft 422 kts 329°
2026-04-21 09:24 42.24733 22.89830 36001 ft 422 kts 328°
2026-04-21 09:24 42.29997 22.86307 36008 ft 423 kts 328°
2026-04-21 09:25 42.35261 22.82750 36008 ft 423 kts 328°
2026-04-21 09:25 42.40529 22.79188 36008 ft 423 kts 328°
2026-04-21 09:26 42.45803 22.75638 36010 ft 423 kts 328°
2026-04-21 09:26 42.51042 22.72111 36010 ft 423 kts 328°
2026-04-21 09:27 42.56348 22.68531 36016 ft 423 kts 328°
2026-04-21 09:27 42.61580 22.64979 36018 ft 422 kts 328°
2026-04-21 09:28 42.66821 22.61391 36025 ft 422 kts 328°
2026-04-21 09:28 42.72078 22.57819 36041 ft 423 kts 328°
2026-04-21 09:29 42.76454 22.54838 36033 ft 423 kts 328°
2026-04-21 09:29 42.81712 22.51236 36040 ft 423 kts 328°
2026-04-21 09:30 42.86970 22.47650 36043 ft 422 kts 329°
2026-04-21 09:30 42.92227 22.44124 36049 ft 421 kts 329°
2026-04-21 09:31 42.97480 22.40593 36058 ft 422 kts 329°
2026-04-21 09:31 43.02746 22.37051 36052 ft 422 kts 329°
2026-04-21 09:32 43.08015 22.33476 36040 ft 423 kts 329°
2026-04-21 09:32 43.13281 22.29913 36044 ft 421 kts 329°
2026-04-21 09:33 43.18523 22.26349 36067 ft 420 kts 328°
2026-04-21 09:33 43.23761 22.22780 36056 ft 420 kts 329°
2026-04-21 09:34 43.29002 22.19205 36047 ft 421 kts 329°
2026-04-21 09:34 43.34265 22.15640 36041 ft 422 kts 329°
2026-04-21 09:35 43.39522 22.12080 36064 ft 421 kts 329°
2026-04-21 09:35 43.44781 22.08481 36051 ft 422 kts 328°
2026-04-21 09:36 43.50043 22.04869 36046 ft 422 kts 328°
2026-04-21 09:36 43.55301 22.01250 36049 ft 423 kts 328°
2026-04-21 09:37 43.60573 21.97616 36035 ft 424 kts 328°
2026-04-21 09:37 43.65843 21.93968 36039 ft 423 kts 328°
2026-04-21 09:38 43.71105 21.90327 36028 ft 423 kts 328°
2026-04-21 09:38 43.76357 21.86685 36028 ft 422 kts 328°
2026-04-21 09:39 43.81567 21.83064 36027 ft 422 kts 328°
2026-04-21 09:39 43.86808 21.79410 36043 ft 421 kts 328°
2026-04-21 09:40 43.92035 21.75768 36025 ft 419 kts 328°
2026-04-21 09:40 43.97240 21.72125 36033 ft 419 kts 328°
2026-04-21 09:41 44.02451 21.68475 36029 ft 419 kts 328°
2026-04-21 09:41 44.07654 21.64820 36067 ft 419 kts 328°
2026-04-21 09:42 44.12868 21.61154 36042 ft 420 kts 328°
2026-04-21 09:42 44.18095 21.57474 36031 ft 420 kts 328°
2026-04-21 09:43 44.23304 21.53780 36029 ft 420 kts 328°
2026-04-21 09:43 44.28513 21.50099 36030 ft 420 kts 328°
2026-04-21 09:44 44.33685 21.46435 36045 ft 420 kts 328°
2026-04-21 09:44 44.38890 21.42742 36034 ft 419 kts 328°
2026-04-21 09:45 44.44084 21.39043 36028 ft 419 kts 328°
2026-04-21 09:45 44.49276 21.35338 36025 ft 418 kts 328°
2026-04-21 09:46 44.54457 21.31628 36051 ft 418 kts 327°
2026-04-21 09:46 44.59641 21.27921 36029 ft 419 kts 327°
2026-04-21 09:47 44.64830 21.24199 36014 ft 419 kts 327°
2026-04-21 09:47 44.70014 21.20474 36011 ft 418 kts 327°
2026-04-21 09:48 44.75186 21.16741 36018 ft 418 kts 327°
2026-04-21 09:48 44.80333 21.12941 36015 ft 418 kts 327°
2026-04-21 09:49 44.85468 21.09116 36015 ft 418 kts 327°
2026-04-21 09:49 44.90611 21.05302 36012 ft 418 kts 327°
2026-04-21 09:50 44.94018 21.02772 36020 ft 418 kts 327°
2026-04-21 09:50 45.00900 20.97648 36037 ft 418 kts 326°
2026-04-21 09:51 45.06047 20.93797 36021 ft 419 kts 326°
2026-04-21 09:51 45.11198 20.89945 36014 ft 419 kts 326°
2026-04-21 09:52 45.16344 20.86084 36019 ft 419 kts 326°
2026-04-21 09:52 45.21494 20.82213 36016 ft 419 kts 326°
2026-04-21 09:53 45.26636 20.78343 36045 ft 419 kts 326°
2026-04-21 09:53 45.31792 20.74449 36024 ft 420 kts 326°
2026-04-21 09:54 45.36941 20.70519 36030 ft 420 kts 326°
2026-04-21 09:54 45.42057 20.66611 36018 ft 420 kts 326°
2026-04-21 09:55 45.47211 20.62676 36014 ft 420 kts 326°
2026-04-21 09:55 45.52371 20.58744 36033 ft 421 kts 326°
2026-04-21 09:56 45.57551 20.54807 36025 ft 422 kts 326°
2026-04-21 09:56 45.62726 20.50842 36027 ft 422 kts 326°
2026-04-21 09:57 45.67905 20.46871 36027 ft 422 kts 326°
2026-04-21 09:57 45.73092 20.42902 36029 ft 423 kts 326°
2026-04-21 09:58 45.78287 20.38909 36036 ft 425 kts 327°
2026-04-21 09:58 45.83509 20.34890 36035 ft 426 kts 327°
2026-04-21 09:59 45.88737 20.30851 36030 ft 427 kts 327°
2026-04-21 09:59 45.93970 20.26791 36035 ft 428 kts 327°
2026-04-21 10:00 45.99217 20.22749 36056 ft 428 kts 327°
2026-04-21 10:00 46.04453 20.18725 36040 ft 430 kts 327°
2026-04-21 10:01 46.09726 20.14626 36037 ft 431 kts 327°
2026-04-21 10:01 46.14995 20.10510 36036 ft 431 kts 327°
2026-04-21 10:02 46.22479 20.03425 36033 ft 428 kts 321°
2026-04-21 10:03 46.27410 19.98551 36043 ft 431 kts 322°
2026-04-21 10:03 46.32368 19.93662 36034 ft 431 kts 322°
2026-04-21 10:04 46.37313 19.88757 36036 ft 431 kts 322°
2026-04-21 10:04 46.42254 19.83859 36036 ft 430 kts 322°
2026-04-21 10:05 46.47194 19.78947 36040 ft 431 kts 322°
2026-04-21 10:05 46.52154 19.73994 36045 ft 433 kts 322°
2026-04-21 10:06 46.57127 19.69022 36041 ft 435 kts 322°
2026-04-21 10:06 46.62116 19.64029 36035 ft 436 kts 322°
2026-04-21 10:07 46.67107 19.59017 36043 ft 436 kts 322°
2026-04-21 10:07 46.72105 19.53982 36031 ft 437 kts 322°
2026-04-21 10:08 46.77110 19.48945 36058 ft 438 kts 322°
2026-04-21 10:08 46.82120 19.43883 36047 ft 438 kts 322°
2026-04-21 10:09 46.87100 19.38842 36042 ft 438 kts 322°
2026-04-21 10:09 46.92103 19.33755 36033 ft 438 kts 322°
2026-04-21 10:10 46.97109 19.28663 36044 ft 438 kts 322°
2026-04-21 10:10 47.02108 19.23549 36055 ft 439 kts 322°
2026-04-21 10:11 47.07128 19.18422 36045 ft 440 kts 323°
2026-04-21 10:11 47.12147 19.13281 36041 ft 440 kts 323°
2026-04-21 10:12 47.17172 19.08112 36043 ft 441 kts 322°
2026-04-21 10:12 47.22190 19.02944 36043 ft 441 kts 322°
2026-04-21 10:13 47.27221 18.97757 36044 ft 441 kts 322°
2026-04-21 10:13 47.32239 18.92544 36042 ft 441 kts 322°
2026-04-21 10:14 47.37254 18.87361 36037 ft 441 kts 322°
2026-04-21 10:14 47.42274 18.82151 36042 ft 441 kts 322°
2026-04-21 10:15 47.47285 18.76918 36046 ft 441 kts 322°
2026-04-21 10:15 47.51449 18.72563 36037 ft 441 kts 322°
2026-04-21 10:16 47.56462 18.67323 36050 ft 442 kts 323°
2026-04-21 10:16 47.61487 18.62059 36045 ft 442 kts 322°
2026-04-21 10:17 47.66506 18.56767 36050 ft 443 kts 322°
2026-04-21 10:17 47.71528 18.51476 36050 ft 443 kts 322°
2026-04-21 10:18 47.76551 18.46164 36052 ft 443 kts 322°
2026-04-21 10:18 47.81542 18.40874 36062 ft 443 kts 323°
2026-04-21 10:19 47.86566 18.35538 36055 ft 444 kts 323°
2026-04-21 10:19 47.91603 18.30190 36056 ft 445 kts 323°
2026-04-21 10:20 47.96632 18.24809 36059 ft 445 kts 322°
2026-04-21 10:20 48.01670 18.19425 36061 ft 445 kts 322°
2026-04-21 10:21 48.06708 18.14034 36059 ft 445 kts 323°
2026-04-21 10:21 48.11747 18.08617 36064 ft 447 kts 323°
2026-04-21 10:22 48.16798 18.03157 36064 ft 448 kts 323°
2026-04-21 10:22 48.21858 17.97688 36062 ft 448 kts 323°
2026-04-21 10:23 48.26930 17.92207 36065 ft 449 kts 322°
2026-04-21 10:23 48.31955 17.86748 36056 ft 449 kts 322°
2026-04-21 10:24 48.37004 17.81240 36074 ft 449 kts 323°
2026-04-21 10:24 48.42063 17.75709 36061 ft 449 kts 323°
2026-04-21 10:25 48.47126 17.70187 36065 ft 449 kts 323°
2026-04-21 10:25 48.52184 17.64655 36059 ft 449 kts 323°
2026-04-21 10:26 48.57233 17.59090 36062 ft 449 kts 322°
2026-04-21 10:26 48.62761 17.54765 36070 ft 452 kts 343°
2026-04-21 10:26 48.65865 17.53981 36068 ft 455 kts 354°
2026-04-21 10:27 48.69031 17.53883 36077 ft 456 kts 358°
2026-04-21 10:27 48.75385 17.53859 36079 ft 457 kts 357°
2026-04-21 10:28 48.81592 17.52440 36086 ft 450 kts 338°
2026-04-21 10:28 48.84380 17.50298 36092 ft 448 kts 325°
2026-04-21 10:28 48.86794 17.47333 36116 ft 447 kts 317°
2026-04-21 10:29 48.91312 17.40818 36114 ft 448 kts 316°
2026-04-21 10:29 48.95859 17.34302 36113 ft 449 kts 316°
2026-04-21 10:30 49.00422 17.27805 36108 ft 449 kts 316°
2026-04-21 10:30 49.04986 17.21290 36108 ft 450 kts 316°
2026-04-21 10:31 49.09535 17.14752 36109 ft 448 kts 316°
2026-04-21 10:31 49.14084 17.08225 36107 ft 449 kts 316°
2026-04-21 10:32 49.18638 17.01688 36115 ft 447 kts 316°
2026-04-21 10:32 49.23148 16.95148 36114 ft 447 kts 316°
2026-04-21 10:33 49.27651 16.88646 36124 ft 447 kts 316°
2026-04-21 10:33 49.32181 16.82062 36129 ft 446 kts 316°
2026-04-21 10:34 49.36662 16.75542 36129 ft 447 kts 316°
2026-04-21 10:34 49.41139 16.68956 36122 ft 446 kts 316°
2026-04-21 10:35 49.45644 16.62345 36137 ft 449 kts 316°
2026-04-21 10:35 49.50181 16.55701 36140 ft 450 kts 316°
2026-04-21 10:36 49.54718 16.49029 36138 ft 451 kts 316°
2026-04-21 10:36 49.59243 16.42330 36144 ft 452 kts 316°
2026-04-21 10:37 49.63788 16.35623 36143 ft 452 kts 316°
2026-04-21 10:37 49.68331 16.28901 36145 ft 453 kts 316°
2026-04-21 10:38 49.72886 16.22176 36147 ft 452 kts 316°
2026-04-21 10:38 49.77402 16.15484 36158 ft 453 kts 316°
2026-04-21 10:39 49.81932 16.08677 36159 ft 455 kts 316°
2026-04-21 10:39 49.86462 16.01868 36149 ft 454 kts 316°
2026-04-21 10:40 49.95916 15.87652 36166 ft 455 kts 316°
2026-04-21 10:41 49.99681 15.81966 36172 ft 454 kts 316°
2026-04-21 10:41 50.04953 15.73997 36172 ft 455 kts 316°
2026-04-21 10:42 50.09482 15.67106 36169 ft 455 kts 316°
2026-04-21 10:42 50.13261 15.61353 36170 ft 453 kts 316°
2026-04-21 10:43 50.17771 15.54457 36172 ft 454 kts 316°
2026-04-21 10:43 50.22283 15.47531 36172 ft 455 kts 316°
2026-04-21 10:44 50.26754 15.40675 36169 ft 453 kts 316°
2026-04-21 10:44 50.31256 15.33744 36167 ft 454 kts 315°
2026-04-21 10:45 50.35755 15.26767 36173 ft 456 kts 316°
2026-04-21 10:45 50.40277 15.19757 36172 ft 458 kts 316°
2026-04-21 10:46 50.44802 15.12742 36174 ft 457 kts 316°
2026-04-21 10:46 50.49321 15.05710 36177 ft 458 kts 316°
2026-04-21 10:47 50.53812 14.98616 36175 ft 457 kts 315°
2026-04-21 10:47 50.58317 14.91526 36184 ft 458 kts 316°
2026-04-21 10:48 50.62832 14.84431 36195 ft 458 kts 316°
2026-04-21 10:48 50.67323 14.77348 36191 ft 457 kts 316°
2026-04-21 10:49 50.71795 14.70269 36200 ft 459 kts 316°
2026-04-21 10:49 50.76326 14.63057 36192 ft 459 kts 316°
2026-04-21 10:50 50.80777 14.55973 36214 ft 457 kts 316°
2026-04-21 10:50 50.85264 14.48844 36219 ft 456 kts 316°
2026-04-21 10:51 50.89727 14.41718 36212 ft 456 kts 316°
2026-04-21 10:51 50.94308 14.34740 36225 ft 458 kts 321°
2026-04-21 10:52 50.99120 14.28112 36221 ft 458 kts 321°
2026-04-21 10:52 51.03943 14.21459 36234 ft 460 kts 320°
2026-04-21 10:53 51.08786 14.14788 36229 ft 460 kts 320°
2026-04-21 10:53 51.13620 14.08095 36234 ft 461 kts 320°
2026-04-21 10:54 51.18461 14.01381 36255 ft 460 kts 320°
2026-04-21 10:54 51.23300 13.94671 36267 ft 462 kts 321°
2026-04-21 10:55 51.28136 13.87926 36260 ft 462 kts 320°
2026-04-21 10:55 51.32965 13.81151 36263 ft 462 kts 320°
2026-04-21 10:56 51.37795 13.74372 36258 ft 462 kts 320°
2026-04-21 10:56 51.42613 13.67565 36262 ft 462 kts 320°
2026-04-21 10:57 51.47394 13.60788 36269 ft 462 kts 320°
2026-04-21 10:57 51.52221 13.53956 36263 ft 464 kts 320°
2026-04-21 10:58 51.57063 13.47068 36284 ft 465 kts 320°
2026-04-21 10:58 51.61907 13.40186 36286 ft 465 kts 321°
2026-04-21 10:59 51.66769 13.33317 36285 ft 465 kts 320°
2026-04-21 10:59 51.71615 13.26399 36291 ft 464 kts 320°
2026-04-21 11:00 51.76446 13.19461 36267 ft 466 kts 320°
2026-04-21 11:00 51.81276 13.12465 36287 ft 467 kts 320°
2026-04-21 11:01 51.86136 13.05460 36286 ft 468 kts 320°
2026-04-21 11:01 51.90981 12.98438 36284 ft 468 kts 320°
2026-04-21 11:02 51.98202 12.87922 36288 ft 467 kts 320°
2026-04-21 11:02 52.03018 12.80844 36286 ft 467 kts 320°
2026-04-21 11:03 52.07839 12.73780 36286 ft 468 kts 320°
2026-04-21 11:03 52.12689 12.66676 36298 ft 471 kts 320°
2026-04-21 11:04 52.17534 12.59528 36299 ft 469 kts 320°
2026-04-21 11:04 52.22372 12.52357 36299 ft 470 kts 320°
2026-04-21 11:05 52.27104 12.44988 36305 ft 472 kts 315°
2026-04-21 11:05 52.31591 12.37198 36304 ft 469 kts 315°
2026-04-21 11:06 52.36327 12.29870 36312 ft 469 kts 321°
2026-04-21 11:06 52.41235 12.22817 36308 ft 471 kts 321°
2026-04-21 11:07 52.46160 12.15738 36314 ft 471 kts 321°
2026-04-21 11:07 52.51076 12.08639 36315 ft 471 kts 321°
2026-04-21 11:08 52.55989 12.01533 36315 ft 470 kts 321°
2026-04-21 11:08 52.60886 11.94395 36322 ft 470 kts 321°
2026-04-21 11:09 52.65909 11.87528 36321 ft 467 kts 325°
2026-04-21 11:09 52.71006 11.81040 35781 ft 457 kts 326°
2026-04-21 11:10 52.73511 11.77853 35203 ft 454 kts 326°
2026-04-21 11:10 52.76018 11.74669 34524 ft 455 kts 326°
2026-04-21 11:10 52.78529 11.71492 33740 ft 455 kts 327°
2026-04-21 11:10 52.81050 11.68316 32965 ft 456 kts 327°
2026-04-21 11:11 52.83570 11.65124 32199 ft 457 kts 327°
2026-04-21 11:11 52.86113 11.61888 31491 ft 463 kts 327°
2026-04-21 11:11 52.88662 11.58628 30779 ft 463 kts 328°
2026-04-21 11:11 52.91181 11.55396 29991 ft 464 kts 328°
2026-04-21 11:12 52.93729 11.52107 29097 ft 466 kts 327°
2026-04-21 11:12 52.96316 11.48777 28320 ft 471 kts 327°
2026-04-21 11:12 52.98901 11.45465 27633 ft 469 kts 327°
2026-04-21 11:12 53.01470 11.42134 26930 ft 466 kts 327°
2026-04-21 11:13 53.04016 11.38830 26238 ft 462 kts 327°
2026-04-21 11:13 53.06542 11.35581 25566 ft 458 kts 327°
2026-04-21 11:13 53.09058 11.32368 24904 ft 454 kts 327°
2026-04-21 11:13 53.11553 11.29182 24224 ft 450 kts 328°
2026-04-21 11:14 53.14093 11.26199 23502 ft 445 kts 330°
2026-04-21 11:14 53.16624 11.23274 22764 ft 441 kts 330°
2026-04-21 11:14 53.19142 11.20357 22043 ft 437 kts 330°
2026-04-21 11:14 53.21629 11.17471 21351 ft 433 kts 330°
2026-04-21 11:15 53.24088 11.14630 20686 ft 427 kts 330°
2026-04-21 11:15 53.26515 11.11821 20076 ft 422 kts 330°
2026-04-21 11:15 53.28917 11.09047 19482 ft 417 kts 330°
2026-04-21 11:15 53.31293 11.06297 18920 ft 414 kts 329°
2026-04-21 11:16 53.33654 11.03557 18328 ft 412 kts 329°
2026-04-21 11:16 53.36004 11.00819 17708 ft 410 kts 329°
2026-04-21 11:16 53.38334 10.98098 17098 ft 408 kts 329°
2026-04-21 11:16 53.40653 10.95384 16529 ft 406 kts 329°
2026-04-21 11:17 53.42962 10.92685 15974 ft 403 kts 329°
2026-04-21 11:17 53.45256 10.90000 15448 ft 400 kts 329°
2026-04-21 11:17 53.47509 10.87357 14916 ft 391 kts 329°
2026-04-21 11:17 53.49719 10.84758 14387 ft 385 kts 329°
2026-04-21 11:18 53.51861 10.82105 13799 ft 384 kts 322°
2026-04-21 11:18 53.53555 10.78615 13198 ft 390 kts 303°
2026-04-21 11:18 53.54551 10.74368 12620 ft 393 kts 284°
2026-04-21 11:18 53.54770 10.69787 12030 ft 393 kts 269°
2026-04-21 11:19 53.54575 10.65250 11532 ft 386 kts 265°
2026-04-21 11:19 53.54298 10.60830 11242 ft 373 kts 264°
2026-04-21 11:19 53.54014 10.56577 11018 ft 359 kts 264°
2026-04-21 11:19 53.53737 10.52491 10820 ft 345 kts 264°
2026-04-21 11:20 53.53469 10.48561 10647 ft 332 kts 264°
2026-04-21 11:20 53.53211 10.44775 10469 ft 320 kts 264°
2026-04-21 11:20 53.52967 10.41179 10263 ft 309 kts 264°
2026-04-21 11:20 53.52722 10.37566 9856 ft 305 kts 264°
2026-04-21 11:21 53.52481 10.34034 9414 ft 303 kts 264°
2026-04-21 11:21 53.52239 10.30532 8999 ft 301 kts 264°
2026-04-21 11:21 53.51995 10.27055 8581 ft 298 kts 264°
2026-04-21 11:21 53.51757 10.23660 8181 ft 296 kts 264°
2026-04-21 11:22 53.51510 10.20195 7757 ft 294 kts 264°
2026-04-21 11:22 53.51271 10.16848 7372 ft 291 kts 264°
2026-04-21 11:22 53.51032 10.13483 6979 ft 289 kts 264°
2026-04-21 11:22 53.50793 10.10146 6588 ft 287 kts 264°
2026-04-21 11:23 53.50556 10.06826 6205 ft 285 kts 264°
2026-04-21 11:23 53.50324 10.03527 5787 ft 284 kts 264°
2026-04-21 11:23 53.50094 10.00246 5393 ft 282 kts 264°
2026-04-21 11:23 53.49864 9.96979 5028 ft 280 kts 264°
2026-04-21 11:24 53.49641 9.93734 4635 ft 279 kts 264°
2026-04-21 11:24 53.49417 9.90517 4256 ft 276 kts 264°
2026-04-21 11:24 53.49188 9.87318 3891 ft 274 kts 264°
2026-04-21 11:24 53.48960 9.84155 3574 ft 271 kts 264°
2026-04-21 11:25 53.48728 9.81040 3255 ft 266 kts 264°
2026-04-21 11:25 53.48498 9.78030 3083 ft 254 kts 264°
2026-04-21 11:25 53.48288 9.75161 2985 ft 242 kts 269°
2026-04-21 11:25 53.48581 9.72547 2955 ft 216 kts 301°
2026-04-21 11:26 53.49520 9.70825 2871 ft 190 kts 336°
2026-04-21 11:26 53.50726 9.70638 2651 ft 170 kts 21°
2026-04-21 11:26 53.51512 9.71920 2384 ft 158 kts 71°
2026-04-21 11:26 53.51720 9.73742 2157 ft 160 kts 77°
2026-04-21 11:27 53.52029 9.75527 2009 ft 160 kts 67°
2026-04-21 11:27 53.52341 9.76641 1986 ft 158 kts 61°
2026-04-21 11:27 53.53130 9.78723 1989 ft 158 kts 54°
2026-04-21 11:27 53.53799 9.80199 1994 ft 158 kts 51°
2026-04-21 11:28 53.54261 9.81139 2032 ft 157 kts 51°
2026-04-21 11:28 53.54958 9.82551 2040 ft 155 kts 51°
2026-04-21 11:28 53.55634 9.83913 1988 ft 140 kts 50°
2026-04-21 11:28 53.56210 9.85073 1875 ft 126 kts 50°
2026-04-21 11:29 53.56773 9.86206 1725 ft 126 kts 50°
2026-04-21 11:29 53.57330 9.87326 1550 ft 124 kts 49°
2026-04-21 11:29 53.57877 9.88428 1402 ft 123 kts 50°
2026-04-21 11:29 53.58426 9.89533 1220 ft 124 kts 49°
2026-04-21 11:30 53.58969 9.90628 1047 ft 123 kts 50°
2026-04-21 11:30 53.59526 9.91751 859 ft 124 kts 50°
2026-04-21 11:30 53.60067 9.92841 697 ft 122 kts 50°
2026-04-21 11:30 53.60608 9.93933 525 ft 121 kts 51°
2026-04-21 11:31 53.61148 9.95031 360 ft 121 kts 43°
2026-04-21 11:31 53.61692 9.96115 170 ft 122 kts 41°
2026-04-21 11:31 53.62236 9.97217 67 ft 122 kts 43°
2026-04-21 11:31 53.62738 9.98209 53 ft 86 kts 50°
2026-04-21 11:32 53.63013 9.98765 56 ft 50 kts 54°
2026-04-21 11:32 53.63218 9.99167 57 ft 39 kts 52°
2026-04-21 11:32 53.63385 9.99506 58 ft 30 kts 53°
2026-04-21 11:32 53.63511 9.99781 53 ft 21 kts 51°
2026-04-21 11:33 53.63575 9.99919 54 ft 12 kts 58°
2026-04-21 11:33 53.63581 10.00046 54 ft 10 kts 160°
2026-04-21 11:33 53.63556 10.00090 56 ft 7 kts 130°
2026-04-21 11:33 53.63523 10.00138 54 ft 6 kts 161°
2026-04-21 11:34 53.63471 10.00152 56 ft 9 kts 178°
2026-04-21 11:34 53.63422 10.00162 56 ft 5 kts 155°
2026-04-21 11:34 53.63409 10.00232 54 ft 8 kts 89°
2026-04-21 11:34 53.63411 10.00295 56 ft 5 kts 88°
2026-04-21 11:35 53.63412 10.00335 56 ft 0 kts 88°
2026-04-21 11:49 53.63413 10.00335 57 ft 0 kts 79°
2026-04-21 11:56 53.63413 10.00336 57 ft 0 kts 68°
2026-04-21 12:00 53.63414 10.00336 57 ft 0 kts 60°
2026-04-21 12:09 53.63414 10.00335 51 ft 0 kts 44°
2026-04-21 12:10 53.63415 10.00335 51 ft 0 kts 43°